Tucson, AZ

3:48 PM MST on December 10, 2016 (GMT -0700)
Tucson International

Weather History for KTUS - January, 2014

Change the Weather History Date:

Monday, January 27, 2014

  Actual Average Record
Temperature  
Mean Temperature 61 °F 54 °F  
Max Temperature 72 °F 67 °F 86 °F (1987)
Min Temperature 49 °F 41 °F 18 °F (1904)
Degree Days  
Heating Degree Days 4 12  
Month to date heating degree days 215 338  
Since 1 July heating degree days 680 949  
Cooling Degree Days 0 0  
Month to date cooling degree days 0 0  
Year to date cooling degree days 0 0  
Growing Degree Days 11 (Base 50)    
Moisture  
Dew Point 28 °F    
Average Humidity 31    
Maximum Humidity 45    
Minimum Humidity 16    
Precipitation  
Precipitation 0.00 in 0.03 in 0.77 in (1961)
Month to date precipitation T 0.81  
Year to date precipitation T 0.81  
Sea Level Pressure  
Sea Level Pressure 29.95 in    
Wind  
Wind Speed 4 mph (SW)    
Max Wind Speed 16 mph    
Max Gust Speed 20 mph    
Visibility 10 miles    
Events      
T = Trace of Precipitation, MM = Missing Value Source: NWS Daily Summary

Daily Weather History Graph

Daily Weather History Graph

Search for Another Location

Airport or City:

Trip Planner

Search our weather history database for the weather conditions in past years. The results will help you decide how hot, cold, wet, or windy it might be!

Date:

Astronomy

Jan. 27, 2014 Rise Set
Actual Time 7:20 AM MST 5:53 PM MST
Civil Twilight 6:54 AM MST 6:18 PM MST
Nautical Twilight 6:25 AM MST 6:48 PM MST
Astronomical Twilight 5:56 AM MST 7:17 PM MST
Moon 4:03 AM MST (1/27) 2:45 PM MST (1/27)
Length of Visible Light 11h 24m
Length of Day
10h 32m
Waning Crescent, 14% of the Moon is Illuminated
Jan 27
Waning Crescent
Jan 30
New
Feb 6
First Quarter
Feb 14
Full
Feb 22
Last Quarter

Hourly Weather History & Observations

Time (MST) Temp. Dew Point Humidity Pressure Visibility Wind Dir Wind Speed Gust Speed Precip Events Conditions
12:53 AM 53.1 °F 27.0 °F 37% 29.95 in 10.0 mi Calm Calm - N/A   Clear
1:53 AM 53.1 °F 28.0 °F 38% 29.94 in 10.0 mi SSE 5.8 mph - N/A   Mostly Cloudy
2:53 AM 53.1 °F 28.0 °F 38% 29.94 in 10.0 mi SSE 3.5 mph - N/A   Mostly Cloudy
3:53 AM 54.0 °F 28.9 °F 38% 29.93 in 10.0 mi ESE 4.6 mph - N/A   Mostly Cloudy
4:53 AM 52.0 °F 30.0 °F 43% 29.94 in 10.0 mi Calm Calm - N/A   Mostly Cloudy
5:53 AM 54.0 °F 30.0 °F 40% 29.94 in 10.0 mi SE 4.6 mph - N/A   Overcast
6:53 AM 52.0 °F 30.9 °F 45% 29.97 in 10.0 mi Calm Calm - N/A   Scattered Clouds
7:53 AM 51.1 °F 30.0 °F 44% 29.99 in 10.0 mi Calm Calm - N/A   Clear
8:53 AM 54.0 °F 32.0 °F 43% 30.00 in 10.0 mi SSW 3.5 mph - N/A   Overcast
9:53 AM 57.9 °F 30.9 °F 36% 30.01 in 10.0 mi Calm Calm - N/A   Overcast
10:53 AM 63.0 °F 27.0 °F 26% 30.00 in 10.0 mi Calm Calm - N/A   Mostly Cloudy
11:53 AM 66.0 °F 21.0 °F 18% 29.97 in 10.0 mi South 4.6 mph - N/A   Partly Cloudy
12:53 PM 69.1 °F 21.9 °F 17% 29.94 in 10.0 mi West 4.6 mph - N/A   Partly Cloudy
1:53 PM 71.1 °F 26.1 °F 19% 29.91 in 10.0 mi Variable 6.9 mph - N/A   Scattered Clouds
2:53 PM 71.1 °F 26.1 °F 19% 29.89 in 10.0 mi NW 9.2 mph - N/A   Mostly Cloudy
3:53 PM 70.0 °F 24.1 °F 18% 29.88 in 10.0 mi North 10.4 mph - N/A   Clear
4:53 PM 69.1 °F 28.0 °F 22% 29.90 in 10.0 mi NW 10.4 mph - N/A   Clear
5:53 PM 66.0 °F 28.9 °F 25% 29.92 in 10.0 mi NNW 8.1 mph - N/A   Clear
6:53 PM 63.0 °F 30.9 °F 30% 29.94 in 10.0 mi WNW 5.8 mph - N/A   Clear
7:53 PM 62.1 °F 24.1 °F 23% 29.96 in 10.0 mi WNW 4.6 mph - N/A   Clear
8:53 PM 57.0 °F 27.0 °F 32% 29.98 in 10.0 mi Calm Calm - N/A   Clear
9:53 PM 55.0 °F 26.1 °F 33% 29.99 in 10.0 mi SSW 4.6 mph - N/A   Clear
10:53 PM 52.0 °F 26.1 °F 37% 30.00 in 10.0 mi SSW 5.8 mph - N/A   Clear
11:53 PM 48.9 °F 27.0 °F 43% 29.99 in 10.0 mi SSE 6.9 mph - N/A   Clear